Location: Bonny Doon Airfield
(37.0704°N, 122.1252°W)
Time: 06:11:19
(UTC-08:00)

Tiangong 2 - Pass Details

Date: 08 October 2017
Orbit: 386 x 390 km, 42.8° (Epoch: 14 December)

Event Time Altitude Azimuth Distance (km) Brightness Sun altitude
Exits shadow 05:54:59 29° 217° (SW) 751 2.1 -15.8°
Maximum altitude 05:56:21 55° 151° (SSE) 472 1.6 -15.5°
Drops below altitude 10° 05:59:31 10° 73° (ENE) 1,424 5.2 -14.9°
Sets 06:01:37 0° 68° (ENE) 2,283 6.5 -14.5°
